Regional Weather Roundup
Issued by NWS Charleston, SC

Current Version | Previous Version | Text Only | Print | Product List | Glossary Off
Versions: 1 2 3 4 5 6 7 8 9 10 11 12 13 14 15 16 17 18 19 20 21 22 23 24 25 26 27 28 29 30 31 32 33 34 35 36 37 38 39 40 41 42 43 44 45 46 47 48 49 50

000
ASUS42 KCHS 051027
RWRCHS

REGIONAL WEATHER ROUNDUP
NATIONAL WEATHER SERVICE CHARLESTON SC
500 AM EST THU MAR 05 2015

NOTE: "FAIR" INDICATES FEW OR NO CLOUDS BELOW 12,000 FEET WITH NO
SIGNIFICANT WEATHER AND/OR OBSTRUCTIONS TO VISIBILITY.

NOT ALL STATIONS ARE QUALITY CONTROLLED BY THE NATIONAL
WEATHER SERVICE. USE DATA WITH CAUTION...ESPECIALLY
DEWPOINT OBSERVATIONS.

SCZ027-030-031-034>040-042>050-051100-
...SOUTHEAST SOUTH CAROLINA...

CITY           SKY/WX    TMP DP  RH WIND       PRES   REMARKS
N CHARLESTON   PTCLDY    60  58  92 S6        29.99R
WATERFRONT PRK   N/A     59 N/A N/A SW10        N/A
MOUNT PLEASANT FAIR      63  61  94 SW6       30.00R
PINOPOLIS      NOT AVBL
MONCKS CORNER  FAIR      63  59  88 S6        29.98R
SUMMERVILLE    FAIR      61  61 100 S5        29.99R
BEAUFORT MCAS  MOCLDY    61  59  93 S5        29.99S
BEAUFORT ARPT  PTSUNNY   63  63 100 SW5       30.00R
HILTON HEAD IS NOT AVBL
WALTERBORO     SUNNY     63  63 100 SW5       29.99R
ALLENDALE      FAIR      66  64  94 CALM      29.96S

...SOUTHERN MIDLANDS AND PEE DEE...

CITY           SKY/WX    TMP DP  RH WIND       PRES   REMARKS
GEORGETOWN     NOT AVBL
KINGSTREE      NOT AVBL
ORANGEBURG     CLOUDY    64  60  87 SW8       29.95S
BARNWELL       PTSUNNY   66  64  94 SW8       29.95F
AIKEN          PTSUNNY   66  64  94 S12       29.96R
MANNING        FAIR     N/A N/A N/A S3        29.96R
COLUMBIA       PTCLDY    67  61  81 SW12      29.91R
SUMTER         PTCLDY    64  61  88 SW14      29.91S
FLORENCE       PTCLDY    64  60  87 S7        29.93S
MYRTLE BEACH   CLEAR     59  55  88 S6        30.00R
N MYRTLE BEACH FOG       55  54  96 SW14      29.97R VSB 1/2

$$

GAZ063-065-086>088-099>101-113>116-118-119-134>141-150-051100-
...SOUTHEAST GEORGIA...

CITY           SKY/WX    TMP DP  RH WIND       PRES   REMARKS
SAVANNAH ARPT  PTCLDY    66  63  88 S12       30.00S
HUNTER AAF     CLOUDY    66  66 100 S6        29.99R
FORT STEWART   PTCLDY    66  64  94 S6        29.99R
STATESBORO     MOCLDY    63  63 100 S6        29.98R
SYLVANIA       SUNNY     64  64 100 CALM      29.98S
CLAXTON        PTSUNNY   64  64 100 CALM      29.99R

...CSRA...CENTRAL AND FAR SOUTHEAST GEORGIA...

CITY           SKY/WX    TMP DP  RH WIND       PRES   REMARKS
THOMSON        CLOUDY    69  67  92 S12G18    29.96S
AUGUSTA-BUSH   MOCLDY    67  62  84 S12       29.92F
AUGUSTA-DANIEL MOCLDY    68  63  84 SW14G21   29.93S
SWAINSBORO     CLOUDY    70  66  88 SW5       29.97S
VIDALIA        CLOUDY    64  64 100 SW5       29.97F
EASTMAN        CLOUDY    69  69 100 SW6G16    29.99S
HAZLEHURST     FAIR      69  67  96 S8        29.98R
ALMA           PTCLDY    66  64  93 S9        30.01S
WAYCROSS       PTCLDY    68  67  98 SW3       30.03R
JESUP          FAIR      70  68  94 CALM      30.03R
BAXLEY         FAIR      68  64  88 S9        29.99F
BRUNSWICK      CLOUDY    68  64  88 SW7       30.05R
SAINT SIMONS   MOCLDY    62  61  96 SW5       30.03S

$$

SCZ027-028-034-036>038-045-046-048>050-GAZ119-141-051100-
...LAKE AND SUPPLEMENTAL COASTAL OBSERVATIONS...

STATION/POSITION TIME  TEMP    WIND        PRES    WAVE   SWELL
                       AIR SEA DIR/SP/G            HT/PER HT/PER/DIR
                 (UTC) (F)     (DEG/KT/KT) (MB)    (FT/S) (FT/S/D)
UPR LAKE MARION  NOT AVBL
WINYAH BAY       0900   62     210/  9     1014.0S
LAKE MURRAY      1000   61     210/ 11/ 14 1012.2S
ACE BASIN NERRS  NOT AVBL
FORT PULASKI     1000   61     200/  5/  8 1016.8R
SAPELO ISLAND    1000   63     190/  5     1017.0S

$$

ANZ835-935-AMZ111-154-330-350-352-354-370-450-454-472-051100-
...C-MAN AND BUOY OBSERVATIONS...

STATION/POSITION TIME  TEMP    WIND        PRES    WAVE   SWELL
                       AIR SEA DIR/SP/G            HT/PER HT/PER/DIR
                 (UTC) (F)     (DEG/KT/KT) (MB)    (FT/S) (FT/S/D)
BUOY 41004       0950   70 69  210/ 19/ 23 1015.3S   6/ 6   2/ 9
BUOY 41008       0950   57 54  210/  6/  8 1016.7F   4/ 6   3/110/ 6
FOLLY BEACH CMAN 1000   54     210/ 13/ 15 1016.1R
CAPERS NEARSHORE 0900   52     220/  8/ 10   N/A
FRIPP NEARSHORE  0900   55     220/ 14/ 17 1015.5F


STATION/POSITION TIME  TEMP    WIND        PRES    WAVE   SWELL
                       AIR SEA DIR/SP/G            HT/PER HT/PER/DIR
                 (UTC) (F)     (DEG/KT/KT) (MB)    (FT/S) (FT/S/D)
5E ST. MARYS GA  0921      55                N/A     3/ 5
FRYING PAN BUOY  0950   69 63  210/ 17/ 19 1016.0R   7/ 8   3/180/ 8
BUOY 41025       NOT AVBL
CAPE LOOKOUT NC  1000   61     210/ 13/ 18 1014.9R
BUOY 41002       0950   73 73  220/ 19/ 25 1019.9R   6/ 5   3/120/11
BUOY 41010       0920   74 74  170/ 16/ 19 1018.6F
ST AUGUSTINE FL  1000   59     180/  9/ 10 1017.9R


$$


USA.gov is the U.S. government's official web portal to all federal, state and local government web resources and services.